,,PressureMeas_1m,,PRMeasQMR101_1,,RHStat155_1m_1,,SRMeasQMS101R_1m,,TAStat155_1m_1,,GenWind_1,,GenWind_1,
2018-04-18, 07:00:06,VALID,917.826,VALID,0.0,VALID,99.036,VALID,87.235,VALID,20.168,INVALID,360.0,VALID,0.0,
2018-04-18, 07:01:06,VALID,917.845,VALID,0.0,VALID,99.034,VALID,87.906,VALID,20.163,VALID,69.0,VALID,0.0,
2018-04-18, 07:02:06,VALID,917.848,VALID,0.0,VALID,99.093,VALID,88.893,VALID,20.215,VALID,67.0,VALID,0.0,
2018-04-18, 07:03:06,VALID,917.843,VALID,0.0,VALID,99.031,VALID,91.366,VALID,20.202,VALID,67.0,VALID,0.0,
2018-04-18, 07:04:06,VALID,917.844,VALID,0.0,VALID,99.087,VALID,93.929,VALID,20.246,VALID,67.0,VALID,0.0,
2018-04-18, 07:05:06,VALID,917.836,VALID,0.0,VALID,99.065,VALID,96.236,VALID,20.295,VALID,67.0,VALID,0.0,
2018-04-18, 07:06:06,VALID,917.85,VALID,0.0,VALID,99.094,VALID,98.766,VALID,20.344,VALID,70.0,VALID,0.0,
2018-04-18, 07:07:06,VALID,917.85,VALID,0.0,VALID,99.027,VALID,102.077,VALID,20.317,INVALID,360.0,VALID,0.0,
2018-04-18, 07:08:06,VALID,917.856,VALID,0.0,VALID,99.031,VALID,105.207,VALID,20.307,VALID,118.0,VALID,0.0,
2018-04-18, 07:09:06,VALID,917.867,VALID,0.0,VALID,99.049,VALID,107.497,VALID,20.365,VALID,118.0,VALID,0.0,
2018-04-18, 07:10:06,VALID,917.883,VALID,0.0,VALID,99.044,VALID,109.387,VALID,20.425,VALID,122.0,VALID,0.409,
2018-04-18, 07:11:06,VALID,917.892,VALID,0.0,VALID,99.008,VALID,111.333,VALID,20.367,VALID,119.0,VALID,1.242,
2018-04-18, 07:12:06,VALID,917.896,VALID,0.0,VALID,98.994,VALID,113.845,VALID,20.369,VALID,121.0,VALID,1.19,
2018-04-18, 07:13:06,VALID,917.907,VALID,0.0,VALID,99.001,VALID,116.602,VALID,20.395,VALID,122.0,VALID,1.762,
2018-04-18, 07:14:06,VALID,917.916,VALID,0.0,VALID,99.007,VALID,119.55,VALID,20.413,VALID,124.0,VALID,1.52,
2018-04-18, 07:15:06,VALID,917.913,VALID,0.0,VALID,98.985,VALID,122.304,VALID,20.408,VALID,122.0,VALID,1.371,
2018-04-18, 07:16:06,VALID,917.91,VALID,0.0,VALID,98.961,VALID,124.556,VALID,20.409,VALID,129.0,VALID,1.118,
2018-04-18, 07:17:06,VALID,917.891,VALID,0.0,VALID,98.964,VALID,127.256,VALID,20.446,VALID,144.0,VALID,0.589,
2018-04-18, 07:18:06,VALID,917.889,VALID,0.0,VALID,98.979,VALID,130.308,VALID,20.492,VALID,147.0,VALID,0.295,
2018-04-18, 07:19:06,VALID,917.89,VALID,0.0,VALID,98.97,VALID,133.782,VALID,20.539,VALID,132.0,VALID,0.626,
2018-04-18, 07:20:06,VALID,917.896,VALID,0.0,VALID,98.94,VALID,138.061,VALID,20.543,VALID,136.0,VALID,0.506,
2018-04-18, 07:21:06,VALID,917.887,VALID,0.0,VALID,98.97,VALID,141.413,VALID,20.583,INVALID,360.0,VALID,0.586,
2018-04-18, 07:22:06,VALID,917.883,VALID,0.0,VALID,98.884,VALID,144.486,VALID,20.553,VALID,165.0,VALID,0.686,
2018-04-18, 07:23:06,VALID,917.888,VALID,0.0,VALID,98.886,VALID,147.776,VALID,20.581,VALID,142.0,VALID,0.841,
2018-04-18, 07:24:06,VALID,917.894,VALID,0.0,VALID,98.852,VALID,151.277,VALID,20.592,VALID,127.0,VALID,1.166,
2018-04-18, 07:25:06,VALID,917.922,VALID,0.0,VALID,98.848,VALID,154.493,VALID,20.623,VALID,128.0,VALID,1.082,
2018-04-18, 07:26:06,VALID,917.926,VALID,0.0,VALID,98.787,VALID,157.573,VALID,20.649,VALID,127.0,VALID,1.218,
2018-04-18, 07:27:06,VALID,917.941,VALID,0.0,VALID,98.712,VALID,160.246,VALID,20.631,VALID,126.0,VALID,1.788,
2018-04-18, 07:28:06,VALID,917.939,VALID,0.0,VALID,98.646,VALID,162.601,VALID,20.664,VALID,125.0,VALID,1.758,
2018-04-18, 07:29:06,VALID,917.949,VALID,0.0,VALID,98.6,VALID,164.747,VALID,20.729,VALID,114.0,VALID,2.225,
2018-04-18, 07:30:06,VALID,917.954,VALID,0.0,VALID,98.461,VALID,167.034,VALID,20.768,VALID,105.0,VALID,1.99,
2018-04-18, 07:31:06,VALID,917.957,VALID,0.0,VALID,98.321,VALID,170.093,VALID,20.868,VALID,118.0,VALID,1.504,
2018-04-18, 07:32:06,VALID,917.965,VALID,0.0,VALID,98.121,VALID,173.589,VALID,20.906,VALID,126.0,VALID,1.726,
2018-04-18, 07:33:06,VALID,917.971,VALID,0.0,VALID,97.823,VALID,176.853,VALID,20.898,VALID,126.0,VALID,1.397,
2018-04-18, 07:34:06,VALID,917.975,VALID,0.0,VALID,97.636,VALID,136.981,VALID,20.942,VALID,133.0,VALID,1.193,
2018-04-18, 07:35:06,VALID,917.992,VALID,0.0,VALID,97.377,VALID,110.223,VALID,20.939,VALID,122.0,VALID,1.407,
2018-04-18, 07:36:06,VALID,918.011,VALID,0.0,VALID,97.059,VALID,184.314,VALID,20.938,VALID,121.0,VALID,1.627,
2018-04-18, 07:37:06,VALID,918.024,VALID,0.0,VALID,96.617,VALID,186.112,VALID,20.984,VALID,108.0,VALID,1.764,
2018-04-18, 07:38:07,VALID,918.034,VALID,0.0,VALID,96.451,VALID,189.175,VALID,21.142,VALID,120.0,VALID,1.586,
2018-04-18, 07:39:07,VALID,918.037,VALID,0.0,VALID,95.99,VALID,191.652,VALID,21.262,VALID,110.0,VALID,1.767,
2018-04-18, 07:40:07,VALID,918.048,VALID,0.0,VALID,95.309,VALID,193.655,VALID,21.314,VALID,114.0,VALID,2.164,
2018-04-18, 07:41:07,VALID,918.047,VALID,0.0,VALID,95.057,VALID,195.563,VALID,21.357,VALID,120.0,VALID,2.125,
2018-04-18, 07:42:07,VALID,918.067,VALID,0.0,VALID,94.317,VALID,196.206,VALID,21.364,VALID,119.0,VALID,1.891,
2018-04-18, 07:43:07,VALID,918.097,VALID,0.0,VALID,94.635,VALID,201.74,VALID,21.414,VALID,120.0,VALID,2.009,
2018-04-18, 07:44:07,VALID,918.089,VALID,0.0,VALID,94.516,VALID,206.638,VALID,21.423,VALID,112.0,VALID,2.299,
2018-04-18, 07:45:07,VALID,918.127,VALID,0.0,VALID,94.651,VALID,210.014,VALID,21.453,VALID,111.0,VALID,2.257,
2018-04-18, 07:46:07,VALID,918.137,VALID,0.0,VALID,94.56,VALID,213.558,VALID,21.467,VALID,113.0,VALID,2.287,
2018-04-18, 07:47:07,VALID,918.165,VALID,0.0,VALID,94.55,VALID,214.499,VALID,21.477,VALID,121.0,VALID,2.101,
2018-04-18, 07:48:07,VALID,918.177,VALID,0.0,VALID,94.453,VALID,215.086,VALID,21.521,VALID,120.0,VALID,2.393,
2018-04-18, 07:49:07,VALID,918.196,VALID,0.0,VALID,93.983,VALID,222.578,VALID,21.537,VALID,124.0,VALID,2.0,
2018-04-18, 07:50:07,VALID,918.224,VALID,0.0,VALID,93.772,VALID,226.375,VALID,21.569,VALID,115.0,VALID,2.032,
2018-04-18, 07:51:07,VALID,918.228,VALID,0.0,VALID,94.138,VALID,229.553,VALID,21.622,VALID,114.0,VALID,2.18,
2018-04-18, 07:52:07,VALID,918.229,VALID,0.0,VALID,93.988,VALID,230.682,VALID,21.641,VALID,114.0,VALID,2.452,
2018-04-18, 07:53:07,VALID,918.225,VALID,0.0,VALID,93.469,VALID,234.305,VALID,21.589,VALID,107.0,VALID,2.56,
2018-04-18, 07:54:07,VALID,918.209,VALID,0.0,VALID,93.756,VALID,236.654,VALID,21.629,VALID,113.0,VALID,2.355,
2018-04-18, 07:55:07,VALID,918.203,VALID,0.0,VALID,94.417,VALID,238.62,VALID,21.708,VALID,112.0,VALID,1.925,
2018-04-18, 07:56:07,VALID,918.204,VALID,0.0,VALID,94.161,VALID,239.359,VALID,21.77,VALID,103.0,VALID,2.12,
2018-04-18, 07:57:07,VALID,918.203,VALID,0.0,VALID,94.061,VALID,238.529,VALID,21.834,VALID,102.0,VALID,2.188,
2018-04-18, 07:58:07,VALID,918.201,VALID,0.0,VALID,93.291,VALID,240.187,VALID,21.86,VALID,106.0,VALID,2.271,
2018-04-18, 07:59:07,VALID,918.195,VALID,0.0,VALID,93.443,VALID,243.773,VALID,21.904,VALID,97.0,VALID,2.018,
2018-04-18, 08:00:07,VALID,918.191,VALID,0.0,VALID,93.732,VALID,244.107,VALID,21.959,VALID,104.0,VALID,2.106,
2018-04-18, 08:01:07,VALID,918.179,VALID,0.0,VALID,92.636,VALID,246.009,VALID,21.951,VALID,116.0,VALID,2.513,
2018-04-18, 08:02:07,VALID,918.161,VALID,0.0,VALID,92.972,VALID,248.817,VALID,21.98,VALID,109.0,VALID,1.967,
2018-04-18, 08:03:07,VALID,918.147,VALID,0.0,VALID,92.486,VALID,250.016,VALID,21.98,VALID,113.0,VALID,2.851,
2018-04-18, 08:04:07,VALID,918.149,VALID,0.0,VALID,92.426,VALID,250.219,VALID,22.012,VALID,110.0,VALID,2.401,
2018-04-18, 08:05:07,VALID,918.146,VALID,0.0,VALID,92.636,VALID,237.193,VALID,22.027,VALID,119.0,VALID,2.741,
2018-04-18, 08:06:07,VALID,918.153,VALID,0.0,VALID,92.122,VALID,234.018,VALID,21.999,VALID,116.0,VALID,2.627,
2018-04-18, 08:07:07,VALID,918.148,VALID,0.0,VALID,91.843,VALID,241.523,VALID,21.937,VALID,113.0,VALID,2.904,
2018-04-18, 08:08:07,VALID,918.147,VALID,0.0,VALID,91.739,VALID,242.75,VALID,21.927,VALID,115.0,VALID,2.44,
2018-04-18, 08:09:07,VALID,918.132,VALID,0.0,VALID,92.359,VALID,235.681,VALID,21.965,VALID,113.0,VALID,2.37,
2018-04-18, 08:10:07,VALID,918.132,VALID,0.0,VALID,92.489,VALID,232.376,VALID,22.008,VALID,112.0,VALID,1.954,
2018-04-18, 08:11:07,VALID,918.135,VALID,0.0,VALID,92.556,VALID,236.616,VALID,22.024,VALID,111.0,VALID,2.184,
2018-04-18, 08:12:07,VALID,918.15,VALID,0.0,VALID,92.624,VALID,247.228,VALID,22.073,VALID,95.0,VALID,1.623,
2018-04-18, 08:13:07,VALID,918.152,VALID,0.0,VALID,92.249,VALID,253.382,VALID,22.14,VALID,114.0,VALID,2.328,
2018-04-18, 08:14:07,VALID,918.15,VALID,0.0,VALID,90.549,VALID,260.729,VALID,22.193,VALID,111.0,VALID,2.088,
2018-04-18, 08:15:07,VALID,918.18,VALID,0.0,VALID,91.166,VALID,246.567,VALID,22.308,VALID,111.0,VALID,2.148,
2018-04-18, 08:16:07,VALID,918.194,VALID,0.0,VALID,91.847,VALID,259.543,VALID,22.386,VALID,79.0,VALID,1.971,
2018-04-18, 08:17:07,VALID,918.207,VALID,0.0,VALID,91.014,VALID,254.525,VALID,22.391,VALID,90.0,VALID,2.145,
2018-04-18, 08:18:07,VALID,918.231,VALID,0.0,VALID,90.17,VALID,248.983,VALID,22.383,VALID,96.0,VALID,2.301,
2018-04-18, 08:19:07,VALID,918.252,VALID,0.0,VALID,90.721,VALID,255.242,VALID,22.422,VALID,99.0,VALID,1.808,
2018-04-18, 08:20:07,VALID,918.257,VALID,0.0,VALID,91.114,VALID,242.284,VALID,22.422,VALID,105.0,VALID,1.708,
2018-04-18, 08:21:07,VALID,918.277,VALID,0.0,VALID,91.013,VALID,240.936,VALID,22.432,VALID,121.0,VALID,1.948,
2018-04-18, 08:22:07,VALID,918.284,VALID,0.0,VALID,90.292,VALID,235.08,VALID,22.442,VALID,118.0,VALID,2.28,
2018-04-18, 08:23:07,VALID,918.3,VALID,0.0,VALID,90.061,VALID,233.612,VALID,22.411,VALID,104.0,VALID,1.761,
2018-04-18, 08:24:07,VALID,918.309,VALID,0.0,VALID,90.723,VALID,233.254,VALID,22.459,VALID,122.0,VALID,1.623,
2018-04-18, 08:25:07,VALID,918.338,VALID,0.0,VALID,90.203,VALID,239.673,VALID,22.527,VALID,105.0,VALID,1.405,
2018-04-18, 08:26:07,VALID,918.346,VALID,0.0,VALID,90.55,VALID,228.211,VALID,22.591,VALID,114.0,VALID,1.717,
2018-04-18, 08:27:07,VALID,918.365,VALID,0.0,VALID,90.717,VALID,223.661,VALID,22.653,VALID,88.0,VALID,1.68,
2018-04-18, 08:28:07,VALID,918.38,VALID,0.0,VALID,89.531,VALID,219.403,VALID,22.622,VALID,117.0,VALID,1.588,
2018-04-18, 08:29:07,VALID,918.408,VALID,0.0,VALID,88.285,VALID,221.254,VALID,22.615,VALID,110.0,VALID,1.955,
2018-04-18, 08:30:07,VALID,918.41,VALID,0.0,VALID,88.591,VALID,223.147,VALID,22.589,VALID,119.0,VALID,1.455,
2018-04-18, 08:31:07,VALID,918.417,VALID,0.0,VALID,90.148,VALID,218.151,VALID,22.642,VALID,120.0,VALID,1.377,
2018-04-18, 08:32:07,VALID,918.429,VALID,0.0,VALID,89.556,VALID,209.418,VALID,22.663,VALID,114.0,VALID,1.643,
2018-04-18, 08:33:07,VALID,918.435,VALID,0.0,VALID,90.318,VALID,202.789,VALID,22.672,VALID,87.0,VALID,1.564,
2018-04-18, 08:34:07,VALID,918.448,VALID,0.0,VALID,88.351,VALID,197.037,VALID,22.639,VALID,65.0,VALID,2.27,
2018-04-18, 08:35:07,VALID,918.46,VALID,0.0,VALID,90.975,VALID,197.339,VALID,22.697,VALID,91.0,VALID,0.957,
2018-04-18, 08:36:07,VALID,918.46,VALID,0.0,VALID,90.49,VALID,201.916,VALID,22.726,VALID,80.0,VALID,1.769,
2018-04-18, 08:37:07,VALID,918.469,VALID,0.0,VALID,88.896,VALID,206.316,VALID,22.712,VALID,95.0,VALID,1.362,
2018-04-18, 08:38:07,VALID,918.491,VALID,0.0,VALID,88.588,VALID,209.571,VALID,22.756,VALID,97.0,VALID,1.63,
2018-04-18, 08:39:07,VALID,918.477,VALID,0.0,VALID,88.745,VALID,212.145,VALID,22.788,VALID,97.0,VALID,1.752,
2018-04-18, 08:40:07,VALID,918.481,VALID,0.0,VALID,88.231,VALID,214.058,VALID,22.809,VALID,99.0,VALID,1.887,
2018-04-18, 08:41:07,VALID,918.483,VALID,0.0,VALID,88.023,VALID,218.177,VALID,22.886,VALID,87.0,VALID,1.912,
2018-04-18, 08:42:07,VALID,918.473,VALID,0.0,VALID,89.299,VALID,225.508,VALID,22.945,VALID,99.0,VALID,1.476,
2018-04-18, 08:43:07,VALID,918.463,VALID,0.0,VALID,88.57,VALID,232.657,VALID,23.006,VALID,101.0,VALID,1.67,
2018-04-18, 08:44:07,VALID,918.453,VALID,0.0,VALID,87.369,VALID,239.685,VALID,23.036,VALID,96.0,VALID,1.384,
2018-04-18, 08:45:07,VALID,918.45,VALID,0.0,VALID,87.634,VALID,253.4,VALID,23.07,VALID,104.0,VALID,1.195,
2018-04-18, 08:46:07,VALID,918.444,VALID,0.0,VALID,88.131,VALID,270.374,VALID,23.11,VALID,117.0,VALID,1.637,
2018-04-18, 08:47:07,VALID,918.438,VALID,0.0,VALID,88.243,VALID,283.21,VALID,23.067,VALID,118.0,VALID,0.932,
2018-04-18, 08:48:07,VALID,918.437,VALID,0.0,VALID,88.927,VALID,289.577,VALID,23.08,VALID,124.0,VALID,1.288,
2018-04-18, 08:49:07,VALID,918.444,VALID,0.0,VALID,88.483,VALID,289.647,VALID,23.092,VALID,126.0,VALID,1.235,
2018-04-18, 08:50:07,VALID,918.439,VALID,0.0,VALID,88.504,VALID,288.866,VALID,23.13,VALID,130.0,VALID,1.339,
2018-04-18, 08:51:07,VALID,918.454,VALID,0.0,VALID,87.753,VALID,285.362,VALID,23.171,VALID,121.0,VALID,1.523,
2018-04-18, 08:52:07,VALID,918.471,VALID,0.0,VALID,87.508,VALID,278.02,VALID,23.097,VALID,113.0,VALID,1.819,
2018-04-18, 08:53:07,VALID,918.474,VALID,0.0,VALID,88.589,VALID,272.705,VALID,23.077,VALID,92.0,VALID,1.487,
2018-04-18, 08:54:07,VALID,918.478,VALID,0.0,VALID,88.543,VALID,275.207,VALID,23.105,VALID,85.0,VALID,2.058,
2018-04-18, 08:55:07,VALID,918.484,VALID,0.0,VALID,88.111,VALID,293.416,VALID,23.023,VALID,92.0,VALID,1.973,
2018-04-18, 08:56:07,VALID,918.505,VALID,0.0,VALID,87.51,VALID,288.882,VALID,22.987,VALID,109.0,VALID,1.843,
2018-04-18, 08:57:07,VALID,918.499,VALID,0.0,VALID,86.609,VALID,280.803,VALID,22.964,VALID,95.0,VALID,1.418,
2018-04-18, 08:58:07,VALID,918.512,VALID,0.0,VALID,86.654,VALID,272.743,VALID,23.04,VALID,108.0,VALID,1.552,
2018-04-18, 08:59:07,VALID,918.499,VALID,0.0,VALID,86.144,VALID,265.751,VALID,23.138,VALID,120.0,VALID,1.593,
2018-04-18, 09:00:07,VALID,918.5,VALID,0.0,VALID,87.417,VALID,260.457,VALID,23.205,VALID,96.0,VALID,1.111,
2018-04-18, 09:01:07,VALID,918.5,VALID,0.0,VALID,86.792,VALID,259.699,VALID,23.294,VALID,80.0,VALID,1.314,
2018-04-18, 09:02:07,VALID,918.517,VALID,0.0,VALID,85.998,VALID,261.618,VALID,23.331,VALID,94.0,VALID,2.076,
2018-04-18, 09:03:07,VALID,918.513,VALID,0.0,VALID,85.946,VALID,269.829,VALID,23.283,VALID,86.0,VALID,1.774,
2018-04-18, 09:04:07,VALID,918.521,VALID,0.0,VALID,85.553,VALID,272.626,VALID,23.254,VALID,81.0,VALID,1.484,
2018-04-18, 09:05:07,VALID,918.521,VALID,0.0,VALID,87.92,VALID,267.562,VALID,23.289,VALID,113.0,VALID,1.87,
2018-04-18, 09:06:07,VALID,918.531,VALID,0.0,VALID,87.222,VALID,261.701,VALID,23.249,VALID,109.0,VALID,1.719,
2018-04-18, 09:07:07,VALID,918.531,VALID,0.0,VALID,83.649,VALID,262.414,VALID,23.256,VALID,103.0,VALID,2.186,
2018-04-18, 09:08:07,VALID,918.538,VALID,0.0,VALID,85.051,VALID,277.479,VALID,23.297,VALID,94.0,VALID,1.592,
2018-04-18, 09:09:07,VALID,918.539,VALID,0.0,VALID,87.347,VALID,296.862,VALID,23.359,VALID,96.0,VALID,1.442,
2018-04-18, 09:10:07,VALID,918.521,VALID,0.0,VALID,86.844,VALID,302.336,VALID,23.451,VALID,99.0,VALID,1.791,
2018-04-18, 09:11:07,VALID,918.526,VALID,0.0,VALID,83.601,VALID,302.382,VALID,23.51,VALID,106.0,VALID,1.984,
2018-04-18, 09:12:07,VALID,918.524,VALID,0.0,VALID,83.285,VALID,307.094,VALID,23.476,VALID,87.0,VALID,2.164,
2018-04-18, 09:13:07,VALID,918.551,VALID,0.0,VALID,85.867,VALID,309.267,VALID,23.496,VALID,92.0,VALID,1.68,
2018-04-18, 09:14:07,VALID,918.561,VALID,0.0,VALID,83.939,VALID,317.17,VALID,23.548,VALID,113.0,VALID,2.009,
2018-04-18, 09:15:07,VALID,918.572,VALID,0.0,VALID,83.814,VALID,319.409,VALID,23.539,VALID,85.0,VALID,1.814,
2018-04-18, 09:16:07,VALID,918.586,VALID,0.0,VALID,85.748,VALID,322.725,VALID,23.569,VALID,88.0,VALID,1.761,
2018-04-18, 09:17:07,VALID,918.616,VALID,0.0,VALID,84.435,VALID,321.423,VALID,23.603,VALID,108.0,VALID,2.353,
2018-04-18, 09:18:07,VALID,918.627,VALID,0.0,VALID,85.482,VALID,314.076,VALID,23.613,VALID,110.0,VALID,1.937,
2018-04-18, 09:19:07,VALID,918.64,VALID,0.0,VALID,84.825,VALID,302.217,VALID,23.688,VALID,104.0,VALID,2.228,
2018-04-18, 09:20:07,VALID,918.645,VALID,0.0,VALID,84.655,VALID,290.792,VALID,23.626,VALID,99.0,VALID,1.278,
2018-04-18, 09:21:07,VALID,918.662,VALID,0.0,VALID,86.649,VALID,282.847,VALID,23.675,VALID,113.0,VALID,1.514,
2018-04-18, 09:22:07,VALID,918.674,VALID,0.0,VALID,85.03,VALID,282.41,VALID,23.679,VALID,116.0,VALID,1.742,
2018-04-18, 09:23:07,VALID,918.667,VALID,0.0,VALID,86.972,VALID,286.469,VALID,23.668,VALID,104.0,VALID,1.712,
2018-04-18, 09:24:07,VALID,918.665,VALID,0.0,VALID,86.21,VALID,293.86,VALID,23.707,VALID,119.0,VALID,2.153,
2018-04-18, 09:25:07,VALID,918.65,VALID,0.0,VALID,84.983,VALID,294.795,VALID,23.745,VALID,111.0,VALID,1.799,
2018-04-18, 09:26:07,VALID,918.656,VALID,0.0,VALID,86.276,VALID,294.611,VALID,23.784,VALID,99.0,VALID,1.907,
2018-04-18, 09:27:07,VALID,918.66,VALID,0.0,VALID,84.941,VALID,300.53,VALID,23.704,VALID,101.0,VALID,2.26,
2018-04-18, 09:28:07,VALID,918.653,VALID,0.0,VALID,85.046,VALID,308.469,VALID,23.611,VALID,108.0,VALID,2.509,
2018-04-18, 09:29:07,VALID,918.641,VALID,0.0,VALID,82.744,VALID,316.968,VALID,23.537,VALID,108.0,VALID,2.33,
2018-04-18, 09:30:07,VALID,918.633,VALID,0.0,VALID,83.509,VALID,325.308,VALID,23.502,VALID,113.0,VALID,2.097,
2018-04-18, 09:31:07,VALID,918.64,VALID,0.0,VALID,85.219,VALID,337.429,VALID,23.6,VALID,115.0,VALID,2.167,
2018-04-18, 09:32:07,VALID,918.64,VALID,0.0,VALID,86.18,VALID,355.272,VALID,23.703,VALID,102.0,VALID,2.158,
2018-04-18, 09:33:07,VALID,918.629,VALID,0.0,VALID,82.633,VALID,362.537,VALID,23.739,VALID,104.0,VALID,2.158,
2018-04-18, 09:34:07,VALID,918.63,VALID,0.0,VALID,83.267,VALID,363.63,VALID,23.793,VALID,126.0,VALID,2.239,
2018-04-18, 09:35:07,VALID,918.63,VALID,0.0,VALID,82.246,VALID,368.471,VALID,23.78,VALID,110.0,VALID,2.812,
2018-04-18, 09:36:07,VALID,918.641,VALID,0.0,VALID,83.548,VALID,368.49,VALID,23.861,VALID,108.0,VALID,1.953,
2018-04-18, 09:37:07,VALID,918.633,VALID,0.0,VALID,82.495,VALID,352.34,VALID,23.942,VALID,105.0,VALID,1.934,
2018-04-18, 09:38:07,VALID,918.63,VALID,0.0,VALID,81.699,VALID,357.61,VALID,23.962,VALID,101.0,VALID,2.044,
2018-04-18, 09:39:07,VALID,918.633,VALID,0.0,VALID,82.241,VALID,352.492,VALID,23.975,VALID,121.0,VALID,2.404,
2018-04-18, 09:40:07,VALID,918.637,VALID,0.0,VALID,81.713,VALID,346.104,VALID,23.998,VALID,112.0,VALID,3.0,
2018-04-18, 09:41:07,VALID,918.65,VALID,0.0,VALID,81.217,VALID,328.119,VALID,23.945,VALID,97.0,VALID,1.727,
2018-04-18, 09:42:07,VALID,918.661,VALID,0.0,VALID,81.952,VALID,318.492,VALID,23.912,VALID,107.0,VALID,2.937,
2018-04-18, 09:43:07,VALID,918.661,VALID,0.0,VALID,81.401,VALID,327.174,VALID,23.805,VALID,100.0,VALID,2.546,
2018-04-18, 09:44:07,VALID,918.659,VALID,0.0,VALID,82.651,VALID,340.783,VALID,23.823,VALID,120.0,VALID,1.976,
2018-04-18, 09:45:07,VALID,918.649,VALID,0.0,VALID,82.781,VALID,339.558,VALID,23.828,VALID,109.0,VALID,2.275,
2018-04-18, 09:46:07,VALID,918.659,VALID,0.0,VALID,81.787,VALID,363.691,VALID,23.812,VALID,114.0,VALID,3.266,
2018-04-18, 09:47:07,VALID,918.64,VALID,0.0,VALID,80.567,VALID,423.86,VALID,23.791,VALID,119.0,VALID,1.835,
2018-04-18, 09:48:07,VALID,918.631,VALID,0.0,VALID,81.386,VALID,453.673,VALID,23.945,VALID,113.0,VALID,2.426,
2018-04-18, 09:49:06,VALID,918.633,VALID,0.0,VALID,81.979,VALID,443.908,VALID,24.044,VALID,100.0,VALID,2.271,
2018-04-18, 09:50:06,VALID,918.625,VALID,0.0,VALID,81.524,VALID,447.311,VALID,24.13,VALID,89.0,VALID,2.093,
2018-04-18, 09:51:06,VALID,918.646,VALID,0.0,VALID,82.96,VALID,455.469,VALID,24.247,VALID,122.0,VALID,1.688,
2018-04-18, 09:52:06,VALID,918.657,VALID,0.0,VALID,81.44,VALID,444.911,VALID,24.41,VALID,83.0,VALID,1.662,
2018-04-18, 09:53:06,VALID,918.68,VALID,0.0,VALID,80.546,VALID,467.083,VALID,24.447,VALID,103.0,VALID,3.142,
2018-04-18, 09:54:06,VALID,918.683,VALID,0.0,VALID,78.603,VALID,453.121,VALID,24.363,VALID,101.0,VALID,1.88,
2018-04-18, 09:55:06,VALID,918.703,VALID,0.0,VALID,81.108,VALID,443.002,VALID,24.407,VALID,104.0,VALID,2.075,
2018-04-18, 09:56:06,VALID,918.72,VALID,0.0,VALID,80.249,VALID,384.229,VALID,24.529,VALID,88.0,VALID,2.28,
2018-04-18, 09:57:06,VALID,918.718,VALID,0.0,VALID,79.089,VALID,376.918,VALID,24.483,VALID,109.0,VALID,1.47,
2018-04-18, 09:58:06,VALID,918.733,VALID,0.0,VALID,79.787,VALID,340.16,VALID,24.544,VALID,127.0,VALID,1.366,
2018-04-18, 09:59:06,VALID,918.759,VALID,0.0,VALID,79.871,VALID,325.507,VALID,24.637,INVALID,360.0,VALID,0.669,
2018-04-18, 10:00:06,VALID,918.774,VALID,0.0,VALID,80.683,VALID,325.985,VALID,24.637,INVALID,360.0,VALID,0.0,
2018-04-18, 10:01:06,VALID,918.791,VALID,0.0,VALID,80.287,VALID,345.9,VALID,24.589,INVALID,360.0,VALID,0.0,
2018-04-18, 10:02:06,VALID,918.778,VALID,0.0,VALID,78.504,VALID,352.943,VALID,24.508,INVALID,360.0,VALID,0.0,
2018-04-18, 10:03:06,VALID,918.786,VALID,0.0,VALID,80.286,VALID,359.712,VALID,24.486,INVALID,360.0,VALID,0.0,
2018-04-18, 10:04:06,VALID,918.798,VALID,0.0,VALID,79.514,VALID,387.605,VALID,24.575,INVALID,360.0,VALID,0.0,
2018-04-18, 10:05:06,VALID,918.809,VALID,0.0,VALID,78.015,VALID,405.725,VALID,24.723,VALID,125.0,VALID,0.653,
2018-04-18, 10:06:06,VALID,918.814,VALID,0.0,VALID,79.401,VALID,405.491,VALID,24.934,INVALID,360.0,VALID,0.313,
2018-04-18, 10:07:06,VALID,918.818,VALID,0.0,VALID,77.703,VALID,383.896,VALID,25.093,INVALID,360.0,VALID,0.0,
2018-04-18, 10:08:06,VALID,918.817,VALID,0.0,VALID,74.741,VALID,450.767,VALID,25.066,INVALID,360.0,VALID,0.0,
2018-04-18, 10:09:06,VALID,918.809,VALID,0.0,VALID,74.43,VALID,525.663,VALID,24.941,INVALID,360.0,VALID,0.0,
2018-04-18, 10:10:06,VALID,918.816,VALID,0.0,VALID,75.822,VALID,572.548,VALID,24.991,INVALID,360.0,VALID,0.0,
2018-04-18, 10:11:06,VALID,918.815,VALID,0.0,VALID,76.688,VALID,541.755,VALID,25.265,INVALID,360.0,VALID,0.0,
2018-04-18, 10:12:06,VALID,918.815,VALID,0.0,VALID,74.651,VALID,781.842,VALID,25.281,VALID,93.0,VALID,0.0,
2018-04-18, 10:13:06,VALID,918.823,VALID,0.0,VALID,75.44,VALID,798.417,VALID,25.252,VALID,89.0,VALID,0.0,
2018-04-18, 10:14:06,VALID,918.829,VALID,0.0,VALID,75.666,VALID,500.496,VALID,25.306,INVALID,360.0,VALID,0.165,
2018-04-18, 10:15:06,VALID,918.833,VALID,0.0,VALID,75.426,VALID,456.317,VALID,25.463,INVALID,360.0,VALID,0.043,
2018-04-18, 10:16:06,VALID,918.818,VALID,0.0,VALID,74.891,VALID,473.774,VALID,25.554,INVALID,360.0,VALID,0.0,
2018-04-18, 10:17:06,VALID,918.824,VALID,0.0,VALID,73.665,VALID,447.915,VALID,25.631,VALID,130.0,VALID,0.0,
2018-04-18, 10:18:06,VALID,918.816,VALID,0.0,VALID,73.614,VALID,422.016,VALID,25.758,VALID,127.0,VALID,0.0,
2018-04-18, 10:19:06,VALID,918.808,VALID,0.0,VALID,73.269,VALID,416.422,VALID,25.835,VALID,119.0,VALID,1.116,
2018-04-18, 10:20:06,VALID,918.81,VALID,0.0,VALID,73.684,VALID,400.911,VALID,25.835,VALID,114.0,VALID,1.067,
2018-04-18, 10:21:06,VALID,918.805,VALID,0.0,VALID,73.227,VALID,406.34,VALID,25.862,VALID,115.0,VALID,0.389,
2018-04-18, 10:22:06,VALID,918.772,VALID,0.0,VALID,74.23,VALID,432.932,VALID,25.886,VALID,116.0,VALID,0.784,
2018-04-18, 10:23:06,VALID,918.775,VALID,0.0,VALID,73.99,VALID,409.385,VALID,25.928,VALID,188.0,VALID,0.305,
2018-04-18, 10:24:06,VALID,918.755,VALID,0.0,VALID,74.174,VALID,369.578,VALID,25.931,VALID,20.0,VALID,0.632,
2018-04-18, 10:25:06,VALID,918.759,VALID,0.0,VALID,73.845,VALID,333.722,VALID,25.745,VALID,40.0,VALID,1.286,
2018-04-18, 10:26:06,VALID,918.779,VALID,0.0,VALID,73.583,VALID,331.3,VALID,25.536,VALID,86.0,VALID,1.962,
2018-04-18, 10:27:06,VALID,918.786,VALID,0.0,VALID,75.622,VALID,370.253,VALID,25.342,VALID,75.0,VALID,1.733,
2018-04-18, 10:28:06,VALID,918.777,VALID,0.0,VALID,75.947,VALID,489.617,VALID,25.223,VALID,81.0,VALID,1.798,
2018-04-18, 10:29:06,VALID,918.779,VALID,0.0,VALID,75.783,VALID,433.342,VALID,25.183,VALID,78.0,VALID,0.582,
2018-04-18, 10:30:06,VALID,918.767,VALID,0.0,VALID,75.695,VALID,681.656,VALID,25.354,VALID,19.0,VALID,0.608,
2018-04-18, 10:31:06,VALID,918.78,VALID,0.0,VALID,75.437,VALID,1053.836,VALID,25.621,VALID,124.0,VALID,1.604,
2018-04-18, 10:32:06,VALID,918.784,VALID,0.0,VALID,72.428,VALID,1025.357,VALID,25.98,VALID,121.0,VALID,1.001,
2018-04-18, 10:33:06,VALID,918.767,VALID,0.0,VALID,71.305,VALID,808.454,VALID,26.306,VALID,106.0,VALID,0.211,
2018-04-18, 10:34:06,VALID,918.757,VALID,0.0,VALID,72.302,VALID,793.145,VALID,26.592,VALID,49.0,VALID,0.899,
2018-04-18, 10:35:06,VALID,918.756,VALID,0.0,VALID,71.352,VALID,730.124,VALID,26.487,VALID,24.0,VALID,0.622,
2018-04-18, 10:36:06,VALID,918.747,VALID,0.0,VALID,73.188,VALID,613.724,VALID,26.411,VALID,14.0,VALID,1.234,